User: anonymous   Login
Location: Brookview Estates
(36.0476°N, 86.6931°W)
Time: 14:00:49
(UTC+00:00)
Language:

Meteor 1-18 Rocket - Orbit

View from above orbital plane
View from above orbital plane
View from above satellite
View from above satellite

Ground track
Ground track

The orbit data is extracted from the following two-line orbital elements,

1  7364U 74052B   20191.61021775 +.00000051 +00000-0 +23448-4 0  9991
2  7364 081.2319 144.9988 0048980 241.9425 117.6786 14.06024367358291
Epoch (UTC): 09 July 2020 14:38:42
Eccentricity: 0.0048980
inclination: 81.2319°
perigee height: 837 km
apogee height: 908 km
right ascension of ascending node: 144.9988°
argument of perigee: 241.9425°
revolutions per day: 14.06024367
mean anomaly at epoch: 117.6786°
orbit number at epoch: 35829

The dashed part of the orbit path shows where the satellite is in the earth's shadow,  

DLR